Regional Weather Roundup
Issued by NWS

Home | Current Version | Previous Version | Graphics & Text | Print | Product List | Glossary On
Versions: 1 2 3 4 5 6 7 8 9 10 11 12 13 14 15 16 17 18 19 20 21 22 23 24 25 26 27 28 29 30 31 32 33 34 35 36 37 38 39 40 41 42 43 44 45 46 47 48 49 50
000
ASUS43 KMPX 230710
RWRMN
WEATHER ROUNDUP FOR MINNESOTA
NATIONAL WEATHER SERVICE TWIN CITIES/CHANHASSEN MN
200 AM CDT SAT AUG 23 2014


NOTE: "FAIR" INDICATES FEW OR NO CLOUDS BELOW 12,000 FEET WITH NO
SIGNIFICANT WEATHER AND/OR OBSTRUCTIONS TO VISIBILITY. N/A MEANS
CURRENT SKY AND/OR WEATHER CONDITIONS ARE NOT AVAILABLE.

MNZ060>063-068>070-230800-
   Twin Cities Metro

CITY           SKY/WX    TMP DP  RH WIND       PRES   REMARKS
TWIN CITIES    PTCLDY    70  68  93 CALM      29.99F
ST PAUL        PTCLDY    70  67  90 N3        29.99F
CRYSTAL        PTCLDY    69  66  90 N5        29.98F
BLAINE         PTCLDY    70  68  94 N5        29.99F
LAKEVILLE      MOCLDY    66  66 100 NE3       29.99F
EDEN PRAIRIE   PTCLDY    69  67  93 NE3       29.98F
SOUTH ST PAUL  PTCLDY    70  67  90 CALM      29.99S
LAKE ELMO      MOCLDY    70  68  94 NE7       30.00F
$$
MNZ001>005-007-008-013>017-022>024-027-028-230800-
   Northwest Minnesota

CITY           SKY/WX    TMP DP  RH WIND       PRES   REMARKS
BEMIDJI        FOG       63  63 100 N3        30.04F VSB 1/2
HALLOCK        CLOUDY    63  61  94 N9        30.10F
ROSEAU         CLOUDY    64  59  82 N8        30.09F
WARROAD        FOG       63  59  88 N6        30.10S VSB 1
THIEF RVR FALL CLOUDY    64  63  94 N10       30.06F
CROOKSTON      LGT RAIN  63  63 100 N12       30.06F
FOSSTON        CLOUDY    66  64  94 N7        30.05F FOG
DETROIT LAKES  CLOUDY    68  64  88 N3        30.06R
MOORHEAD       CLOUDY    66  66 100 N12       30.04S
PARK RAPIDS    FOG       66  66 100 CALM      30.03F VSB 1/2
MAHNOMEN       FOG       66  66 100 NE3       30.04F VSB 1
$$
MNZ006-009>011-018-025>026-230800-
   North Central Minnesota

CITY           SKY/WX    TMP DP  RH WIND       PRES   REMARKS
BAUDETTE       MOCLDY    63  62  97 N3        30.08S
FLAG ISLAND    CLOUDY    66  63  88 NW8       30.08S
INTL FALLS     PTCLDY    59  58  96 CALM      30.07S FOG
WASKISH        CLOUDY    68  66  94 CALM      30.06F
BIG FORK       MOCLDY    68  66  94 CALM      30.06F
LONGVILLE      CLOUDY    66  66 100 CALM      30.04F FOG
GRAND RAPIDS   CLOUDY    64  63  94 E5        30.05F
CRANE LAKE     CLOUDY    61  61 100 CALM      30.09S
ORR            CLOUDY    64  63  94 CALM      30.05S
COOK           MOCLDY    64  64 100 CALM      30.08S FOG
WALKER         CLOUDY    64  64 100 CALM      30.03F
$$
MNZ012-019>021-037-230800-
   Northeast Minnesota

CITY           SKY/WX    TMP DP  RH WIND       PRES   REMARKS
DULUTH         PTCLDY    60  58  92 E3        30.06F FOG
ELY            CLOUDY    64  63  94 CALM      30.08S
HIBBING        CLOUDY    66  62  87 CALM      30.06F
EVELETH        CLOUDY    63  61  94 CALM      30.08F FOG
DULUTH HARBOR  PTCLDY    63  61  94 NE3       30.06F
TWO HARBORS    PTCLDY    59  54  82 CALM      30.05S HAZE
SILVER BAY     CLEAR     63  63 100 CALM      30.06R
GRAND MARAIS     N/A     62  60  93 NE6       30.06S
G MARAIS ARPRT CLOUDY    61  57  88 CALM      30.10S
$$
MNZ029>031-032-039>041-046>048-054>057-064-230800-
   West Central Minnesota

CITY           SKY/WX    TMP DP  RH WIND       PRES   REMARKS
FERGUS FALLS   PTCLDY    64  63  94 CALM      30.02S FOG
WHEATON        FOG       64  63  94 N7        30.05R VSB 1/2
MORRIS         MOCLDY    70  70 100 N5        30.00F
ALEXANDRIA     MOCLDY    70  68  93 CALM      30.04F
ELBOW LAKE     MOCLDY    65  65  99 N5        30.02S
WADENA         FOG       66  64  94 CALM      30.03S VSB 1/2
GLENWOOD       MOCLDY    68  66  94 CALM      30.03F
APPLETON       MOCLDY    72  68  88 N5        29.98F
BENSON         MOCLDY    70  68  94 NE3       29.99F
ORTONVILLE     MOCLDY    68  66  94 N6        30.01S
MADISON        CLOUDY    73  72  94 N7        29.99F
WILLMAR        FAIR      72  68  88 E6        30.02R
$$
MNZ033>034-036-042>043-049>051-058-059-230800-
   Central Minnesota

CITY           SKY/WX    TMP DP  RH WIND       PRES   REMARKS
ST CLOUD       PTCLDY    68  65  90 NE6       30.01F
SAUK CENTRE    FAIR      68  66  95 E3        30.03S
PAYNESVILLE    MOCLDY    65  65 100 N3        30.01F FOG
AITKIN         CLOUDY    64  59  82 CALM      30.03F HAZE
PINE RIVER     CLOUDY    66  66 100 SE6       30.07F
BRAINERD       MOCLDY    65  64  97 CALM      30.04F
STAPLES        CLOUDY    66  66 100 CALM      30.04R
LONG PRAIRIE   CLOUDY    64  64 100 E5        30.03F
LITTLE FALLS   CLOUDY    64  63  94 E3        30.04S FOG
LITCHFIELD     MOCLDY    70  70 100 NE5       30.01S
BUFFALO        PTCLDY    68  65  92 NE5       30.01S
MAPLE LAKE     MOCLDY    68  67  98 NE3       30.02S
$$
MNZ037-044-045-052-053-230800-
   East Central Minnesota

CITY           SKY/WX    TMP DP  RH WIND       PRES   REMARKS
PRINCETON      CLEAR     66  64  94 N5        30.02F
MORA           MOCLDY    64  63  94 CALM      30.05S
CAMBRIDGE      CLOUDY    68  61  77 NE3       30.00F
RUSH CITY      CLOUDY    66  63  91 NE5       30.02F
MOOSE LAKE     CLOUDY    61  59  94 E6        30.02F FOG
HINCKLEY       CLOUDY    64  63  94 N6        30.03F
CLOQUET        MOCLDY    63  61  94 CALM      30.06F FOG
MCGREGOR       CLOUDY    63  61  94 E3        30.05F
$$
MNZ071>073-080-081-089-090-097-098-230800-
   Southwest Minnesota

CITY           SKY/WX    TMP DP  RH WIND       PRES   REMARKS
MONTEVIDEO     MOCLDY    72  70  94 SE3       30.00S
GRANITE FALLS  MOCLDY    71  70  96 E3        30.01S
CANBY          CLOUDY    71  69  93 N5        30.01R
MARSHALL       CLOUDY    72  68  88 E7        29.99S
REDWOOD FALLS  CLOUDY    71  69  93 E6        29.99S
OLIVIA         MOCLDY    70  66  88 E5        29.99F FOG
PIPESTONE      CLOUDY    72  68  88 E5        30.00S
WINDOM         CLOUDY    70  66  88 E5        30.01R
WORTHINGTON      N/A     70  68  94 E6        30.01S
JACKSON        CLOUDY    68  64  88 E5        30.00F
TRACY          CLOUDY    71  69  94 E5        30.00S
SLAYTON        CLOUDY    69  69  97 CALM      30.01F
$$
MNZ065>067-074>077-082>085-091>093-230800-
   South Central Minnesota

CITY           SKY/WX    TMP DP  RH WIND       PRES   REMARKS
MANKATO        MOCLDY    70  63  78 E7        29.99R
NEW ULM        MOCLDY    70  70 100 E6        30.00R
ST JAMES       CLOUDY    70  66  88 E3        30.01R FOG
FAIRMONT       CLOUDY    63  63 100 E3        29.99S
GLENCOE        PTCLDY    69  65  90 N3        29.99R FOG
FARIBAULT      MOCLDY    70  64  83 CALM      30.00R HAZE
OWATONNA       CLOUDY    68  66  94 NE5       30.00S
WASECA         MOCLDY    68  63  83 E5        30.01S
ALBERT LEA     CLOUDY    70  68  94 E3        30.00S FOG
$$
MNZ078>079-086>088-094>096-230800-
   Southeast Minnesota

CITY           SKY/WX    TMP DP  RH WIND       PRES   REMARKS
ROCHESTER      MOCLDY    69  66  90 NE5       30.00F
RED WING       MOCLDY    70  66  88 SE5       29.97F
STANTON        MOCLDY    68  66  92 CALM      29.98S FOG
DODGE CENTER   CLOUDY    66  66 100 CALM      30.00S FOG
WINONA         MOCLDY    73  70  88 CALM      29.97F
AUSTIN         MOCLDY    68  66  94 NE3       29.99F FOG
PRESTON        MOCLDY    67  68 100 CALM      30.01S FOG
$$
ABBREVIATIONS USED IN REMARKS
   TC - TEMPERATURES IN CELSIUS
  WCI - WIND CHILL INDEX
   HX - HEAT INDEX
  VSB - VISIBILITY
$$



USA.gov is the U.S. government's official web portal to all federal, state and local government web resources and services.